Location: Unspecified
(0.0000°N, 0.0000°E)
Time: 10:05:31
(UTC+00:00)

deb r/b Ablestar - Pass Details

Date: 14 March 2026
Orbit: 827 x 964 km, 67.7° (Epoch: 19 April)

Event Time Altitude Azimuth Distance (km) Brightness Sun altitude
Rises 19:35:05 0° 320° (NW) 3,472 ? -21.5°
Reaches altitude 10° 19:37:50 10° 309° (NW) 2,559 ? -22.2°
Maximum altitude 19:42:53 29° 251° (WSW) 1,609 ? -23.4°
Drops below altitude 10° 19:48:07 10° 192° (SSW) 2,646 ? -24.7°
Sets 19:51:02 0° 181° (S) 3,610 ? -25.5°
